Location: Unspecified
(34.4950°S, 58.5160°W)
Time: 03:06:09
(UTC+00:00)

Hubble Space Telescope - Visible Passes

Search period start: 18 February 2026 00:00
Search period end: 28 February 2026 00:00
Orbit: 478 x 479 km, 28.5° (Epoch: 17 February)

Date Brightness Start Highest point End Pass type
(mag) Time Alt. Az. Time Alt. Az. Time Alt. Az.
18 Feb 2.0 00:32:50 10° WNW 00:35:19 26° NNW 00:35:19 26° NNW visible
19 Feb 1.7 00:02:33 10° WNW 00:05:53 29° N 00:06:38 27° NNE visible
19 Feb 1.8 23:32:15 10° WNW 23:35:36 29° N 23:37:56 16° NE visible
20 Feb 1.9 23:01:56 10° WNW 23:05:17 29° N 23:08:37 10° NE visible
21 Feb 3.1 00:42:24 10° NW 00:43:19 13° NW 00:43:19 13° NW visible
22 Feb 2.7 00:12:06 10° NW 00:14:17 15° NNW 00:14:37 15° NNW visible
22 Feb 2.8 23:41:45 10° NW 23:43:56 15° NNW 23:45:56 11° NNE visible
23 Feb 2.9 23:11:25 10° NW 23:13:35 15° NNW 23:15:45 10° NNE visible
